Location: Archemont
(49.1579°N, 1.7598°E)
Time: 10:14:53
(UTC+00:00)

S-56A Canister/Altair - Pass Details

Date: 17 April 2024
Orbit: 638 x 2488 km, 38.9° (Epoch: 20 May)

Event Time Altitude Azimuth Distance (km) Brightness Sun altitude
Rises 16:30:52 0° 201° (SSW) 3,261 11.2 21.5°
Reaches altitude 10° 16:33:58 10° 180° (S) 2,547 10.4 21.0°
Maximum altitude 16:37:40 17° 141° (SE) 2,379 9.8 20.4°
Drops below altitude 10° 16:42:10 10° 105° (ESE) 3,224 10.2 19.6°
Sets 16:46:51 0° 88° (E) 4,602 10.9 18.9°
